| time (UTC) | temp F | wind direction | speed MPH | gust MPH | rain 1hr in | rain 24hr in | rain mn in | humidity % | barometer mb |
| 20260508140029 | 52 | 11 | 8.0 | 16.0 | 0.00 | 0.00 | 0.00 | 56 | 1011.8 |
| 20260508134528 | 51 | 352 | 11.0 | 17.0 | 0.00 | 0.00 | 0.00 | 56 | 1011.7 |
| 20260508133029 | 50 | 22 | 8.0 | 14.0 | 0.00 | 0.00 | 0.00 | 58 | 1011.8 |
| 20260508131529 | 49 | 5 | 7.0 | 15.0 | 0.00 | 0.00 | 0.00 | 58 | 1012.1 |
| 20260508130027 | 48 | 335 | 5.0 | 13.0 | 0.00 | 0.00 | 0.00 | 60 | 1012.1 |
| 20260508124530 | 46 | 40 | 2.0 | 5.0 | 0.00 | 0.00 | 0.00 | 69 | 1012.2 |
| 20260508123030 | 42 | 0 | 0.0 | 0.0 | 0.00 | 0.00 | 0.00 | 77 | 1012.2 |
| 20260508121530 | 41 | 0 | 0.0 | 0.0 | 0.00 | 0.00 | 0.00 | 79 | 1012.2 |
| 20260508120028 | 41 | 0 | 0.0 | 1.0 | 0.00 | 0.00 | 0.00 | 78 | 1012.3 |
| 20260508114530 | 40 | 0 | 0.0 | 0.0 | 0.00 | 0.00 | 0.00 | 83 | 1012.4 |
| 20260508113028 | 38 | 0 | 0.0 | 1.0 | 0.00 | 0.00 | 0.00 | 83 | 1012.4 |
| 20260508111529 | 36 | 0 | 0.0 | 0.0 | 0.00 | 0.00 | 0.00 | 86 | 1012.3 |
| 20260508110027 | 34 | 0 | 0.0 | 2.0 | 0.00 | 0.00 | 0.00 | 89 | 1012.2 |
| 20260508104541 | 34 | 107 | 0.0 | 2.0 | 0.00 | 0.00 | 0.00 | 88 | 1012.0 |
| 20260508103035 | 34 | 0 | 0.0 | 2.0 | 0.00 | 0.00 | 0.00 | 87 | 1011.9 |
| 20260508101528 | 34 | 0 | 0.0 | 2.0 | 0.00 | 0.00 | 0.00 | 86 | 1011.8 |
| 20260508100027 | 34 | 0 | 0.0 | 1.0 | 0.00 | 0.00 | 0.00 | 86 | 1011.7 |
| 20260508094527 | 35 | 0 | 0.0 | 2.0 | 0.00 | 0.00 | 0.00 | 85 | 1011.6 |
| 20260508093029 | 35 | 0 | 0.0 | 0.0 | 0.00 | 0.00 | 0.00 | 85 | 1011.5 |
| 20260508091528 | 35 | 0 | 0.0 | 0.0 | 0.00 | 0.00 | 0.00 | 85 | 1011.5 |
| 20260508090030 | 36 | 0 | 0.0 | 0.0 | 0.00 | 0.00 | 0.00 | 85 | 1011.5 |
| 20260508084530 | 36 | 0 | 0.0 | 0.0 | 0.00 | 0.00 | 0.00 | 84 | 1011.6 |
| 20260508083031 | 36 | 0 | 0.0 | 1.0 | 0.00 | 0.00 | 0.00 | 84 | 1011.5 |
| 20260508081530 | 37 | 0 | 0.0 | 1.0 | 0.00 | 0.00 | 0.00 | 85 | 1011.5 |
| 20260508080027 | 37 | 0 | 0.0 | 0.0 | 0.00 | 0.00 | 0.00 | 86 | 1011.6 |
| 20260508074526 | 37 | 0 | 0.0 | 0.0 | 0.00 | 0.00 | 0.00 | 86 | 1011.4 |
| 20260508073028 | 37 | 0 | 0.0 | 0.0 | 0.00 | 0.00 | 0.00 | 87 | 1011.4 |
| 20260508071528 | 37 | 0 | 0.0 | 1.0 | 0.00 | 0.00 | 0.00 | 87 | 1011.6 |
| 20260508070041 | 37 | 107 | 0.0 | 2.0 | 0.00 | 0.00 | 0.00 | 87 | 1011.7 |
| 20260508064533 | 38 | 0 | 0.0 | 0.0 | 0.00 | 0.00 | 0.00 | 88 | 1011.7 |
| 20260508063030 | 38 | 0 | 0.0 | 0.0 | 0.00 | 0.00 | 0.00 | 88 | 1011.7 |
| 20260508061528 | 38 | 0 | 0.0 | 0.0 | 0.00 | 0.00 | 0.00 | 88 | 1011.7 |
| 20260508060027 | 38 | 0 | 0.0 | 0.0 | 0.00 | 0.00 | 0.00 | 86 | 1011.8 |
| 20260508054528 | 39 | 0 | 0.0 | 0.0 | 0.00 | 0.00 | 0.00 | 85 | 1011.8 |
| 20260508053030 | 39 | 0 | 0.0 | 0.0 | 0.00 | 0.00 | 0.00 | 86 | 1011.9 |
| 20260508051527 | 40 | 0 | 0.0 | 0.0 | 0.00 | 0.00 | 0.00 | 86 | 1012.0 |
| 20260508050027 | 40 | 0 | 0.0 | 0.0 | 0.00 | 0.00 | 0.00 | 84 | 1012.0 |
| 20260508044528 | 41 | 0 | 0.0 | 0.0 | 0.00 | 0.00 | 0.00 | 82 | 1011.9 |
| 20260508043048 | 42 | 0 | 0.0 | 0.0 | 0.00 | 0.00 | 0.00 | 80 | 1011.9 |
| 20260508041530 | 42 | 0 | 0.0 | 0.0 | 0.00 | 0.00 | 0.00 | 80 | 1011.7 |
| 20260508040031 | 43 | 0 | 0.0 | 0.0 | 0.00 | 0.00 | 0.00 | 80 | 1011.5 |
| 20260508034528 | 44 | 0 | 0.0 | 0.0 | 0.00 | 0.00 | 0.00 | 77 | 1011.5 |
| 20260508033032 | 45 | 0 | 0.0 | 1.0 | 0.00 | 0.00 | 0.00 | 75 | 1011.4 |
| 20260508031528 | 45 | 0 | 0.0 | 2.0 | 0.00 | 0.00 | 0.00 | 74 | 1011.4 |
| 20260508030042 | 46 | 0 | 0.0 | 4.0 | 0.00 | 0.00 | 0.00 | 73 | 1011.3 |
| 20260508024533 | 46 | 0 | 2.0 | 10.0 | 0.00 | 0.00 | 0.00 | 71 | 1011.1 |
| 20260508023030 | 47 | 134 | 3.0 | 24.0 | 0.00 | 0.00 | 0.00 | 71 | 1010.7 |
| 20260508021533 | 51 | 85 | 19.0 | 31.0 | 0.00 | 0.00 | 0.00 | 57 | 1011.4 |
| 20260508020029 | 52 | 0 | 0.0 | 2.0 | 0.00 | 0.00 | 0.00 | 52 | 1009.7 |
| 20260508014529 | 52 | 0 | 0.0 | 2.0 | 0.00 | 0.00 | 0.00 | 50 | 1009.6 |
| 20260508013028 | 53 | 55 | 1.0 | 4.0 | 0.00 | 0.00 | 0.00 | 49 | 1009.4 |
| 20260508011530 | 53 | 65 | 2.0 | 6.0 | 0.00 | 0.00 | 0.00 | 49 | 1009.1 |
| 20260508010028 | 54 | 57 | 2.0 | 5.0 | 0.00 | 0.00 | 0.00 | 50 | 1008.9 |
| 20260508004528 | 54 | 95 | 2.0 | 4.0 | 0.00 | 0.00 | 0.00 | 50 | 1008.7 |
| 20260508003030 | 54 | 0 | 1.0 | 3.0 | 0.00 | 0.00 | 0.00 | 49 | 1008.5 |
| 20260508001529 | 55 | 39 | 1.0 | 4.0 | 0.00 | 0.00 | 0.00 | 47 | 1008.4 |
| 20260508000027 | 56 | 35 | 1.0 | 8.0 | 0.00 | 0.00 | 0.00 | 45 | 1008.2 |
| 20260507234535 | 56 | 44 | 4.0 | 9.0 | 0.00 | 0.00 | 0.00 | 43 | 1008.1 |
| 20260507233029 | 56 | 95 | 5.0 | 14.0 | 0.00 | 0.00 | 0.00 | 42 | 1008.0 |
| 20260507231530 | 56 | 70 | 4.0 | 9.0 | 0.00 | 0.00 | 0.00 | 42 | 1007.7 |
| 20260507230029 | 57 | 101 | 6.0 | 16.0 | 0.00 | 0.00 | 0.00 | 41 | 1007.7 |
| 20260507224530 | 57 | 81 | 8.0 | 15.0 | 0.00 | 0.00 | 0.00 | 41 | 1007.6 |
| 20260507223029 | 57 | 54 | 7.0 | 13.0 | 0.00 | 0.00 | 0.00 | 42 | 1007.5 |
| 20260507221533 | 57 | 96 | 5.0 | 12.0 | 0.00 | 0.00 | 0.00 | 41 | 1007.6 |
| 20260507220029 | 57 | 69 | 6.0 | 12.0 | 0.00 | 0.00 | 0.00 | 41 | 1007.6 |
| 20260507214530 | 57 | 63 | 6.0 | 14.0 | 0.00 | 0.00 | 0.00 | 42 | 1007.6 |
| 20260507213030 | 58 | 51 | 5.0 | 11.0 | 0.00 | 0.00 | 0.00 | 41 | 1007.6 |
| 20260507211528 | 57 | 70 | 6.0 | 14.0 | 0.00 | 0.00 | 0.00 | 41 | 1007.6 |
| 20260507210029 | 57 | 118 | 5.0 | 12.0 | 0.00 | 0.00 | 0.00 | 42 | 1007.5 |
| 20260507204527 | 57 | 92 | 6.0 | 12.0 | 0.00 | 0.00 | 0.00 | 41 | 1007.6 |
| 20260507203032 | 58 | 88 | 6.0 | 15.0 | 0.00 | 0.00 | 0.00 | 40 | 1007.7 |
| 20260507201536 | 58 | 36 | 8.0 | 14.0 | 0.00 | 0.00 | 0.00 | 40 | 1007.7 |
| 20260507200029 | 59 | 9 | 8.0 | 16.0 | 0.00 | 0.00 | 0.00 | 39 | 1007.8 |
| 20260507194527 | 58 | 92 | 6.0 | 13.0 | 0.00 | 0.00 | 0.00 | 41 | 1007.8 |
| 20260507193032 | 58 | 64 | 6.0 | 17.0 | 0.00 | 0.00 | 0.00 | 41 | 1008.1 |
| 20260507191534 | 59 | 37 | 10.0 | 16.0 | 0.00 | 0.00 | 0.00 | 37 | 1008.1 |
| 20260507190030 | 59 | 55 | 7.0 | 18.0 | 0.00 | 0.00 | 0.00 | 45 | 1008.2 |
| 20260507184528 | 59 | 63 | 8.0 | 12.0 | 0.00 | 0.00 | 0.00 | 41 | 1008.5 |
| 20260507183036 | 59 | 59 | 5.0 | 14.0 | 0.00 | 0.00 | 0.00 | 48 | 1008.5 |
| 20260507181529 | 57 | 116 | 6.0 | 12.0 | 0.00 | 0.00 | 0.00 | 42 | 1008.7 |
| 20260507180027 | 59 | 67 | 9.0 | 15.0 | 0.00 | 0.00 | 0.00 | 44 | 1008.9 |
| 20260507174533 | 59 | 99 | 9.0 | 16.0 | 0.00 | 0.00 | 0.00 | 40 | 1009.1 |
| 20260507173033 | 59 | 63 | 10.0 | 18.0 | 0.00 | 0.00 | 0.00 | 40 | 1009.3 |
| 20260507171531 | 57 | 72 | 4.0 | 12.0 | 0.00 | 0.00 | 0.00 | 41 | 1009.4 |
| 20260507170028 | 57 | 117 | 8.0 | 16.0 | 0.00 | 0.00 | 0.00 | 43 | 1009.5 |
| 20260507164526 | 57 | 113 | 5.0 | 12.0 | 0.00 | 0.00 | 0.00 | 45 | 1009.7 |
| 20260507163031 | 56 | 128 | 5.0 | 14.0 | 0.00 | 0.00 | 0.00 | 42 | 1009.7 |
| 20260507161530 | 55 | 100 | 2.0 | 11.0 | 0.00 | 0.00 | 0.00 | 44 | 1010.0 |
| 20260507160034 | 55 | 96 | 4.0 | 9.0 | 0.00 | 0.00 | 0.00 | 50 | 1010.2 |
| 20260507154528 | 55 | 62 | 5.0 | 13.0 | 0.00 | 0.01 | 0.00 | 44 | 1010.4 |
| 20260507153027 | 54 | 109 | 5.0 | 13.0 | 0.00 | 0.01 | 0.00 | 47 | 1010.7 |
| 20260507151528 | 53 | 40 | 5.0 | 14.0 | 0.00 | 0.01 | 0.00 | 53 | 1011.1 |
| 20260507150030 | 53 | 102 | 7.0 | 20.0 | 0.00 | 0.01 | 0.00 | 50 | 1011.4 |
| 20260507144530 | 52 | 112 | 1.0 | 7.0 | 0.00 | 0.02 | 0.00 | 56 | 1011.5 |
| 20260507143048 | 51 | 32 | 2.0 | 12.0 | 0.00 | 0.02 | 0.00 | 59 | 1011.7 |
| 20260507141538 | 51 | 86 | 4.0 | 8.0 | 0.00 | 0.02 | 0.00 | 54 | 1012.0 |